Location: Doverdale
(52.2833°N, 2.2000°W)
Time: 03:43:54
(UTC+00:00)

CSL-04 Rocket - Pass Details

Date: 29 October 2020
Orbit: 805 x 861 km, 98.9° (Epoch: 24 November)

Event Time Altitude Azimuth Distance (km) Brightness Sun altitude
Rises 18:35:10 0° 153° (SSE) 3,425 6.6 -17.4°
Reaches altitude 10° 18:37:33 10° 151° (SSE) 2,489 5.9 -17.7°
Maximum altitude 18:43:02 68° 69° (ENE) 919 3.6 -18.6°
Drops below altitude 10° 18:48:30 10° 348° (NNW) 2,479 6.3 -19.4°
Sets 18:50:52 0° 346° (NNW) 3,410 7.1 -19.8°
